[Date Prev][Date Next][Thread Prev][Thread Next] - [Date Index][Thread Index][Author Index]
2 Line ISS Keps 7-10
- Subject: [sarex] 2 Line ISS Keps 7-10
- From: "Dave Larsen PhD" <doc@xxxxxxxxxxx>
- Date: Sat, 10 Jul 2004 04:39:43 -0700
ISS
1 25544U 98067A 04192.35008102 .00004046 00000-0 38350-4 0 1826
2 25544 51.6308 207.5924 0006100 349.6385 206.6292 15.69622436321950
----
Via the sarex mailing list at AMSAT.ORG courtesy of AMSAT-NA.
To unsubscribe, send "unsubscribe sarex" to Majordomo@amsat.org
AMSAT Home